Погода Свободный

Погода Свободный : погода сейчас, прогноз погоды и архив. Всё, что Вы хотите узнать о погоде Свободный!

Хотите узнать прогноз погоды Свободный? Тогда Вам сюда: Погода Свободный

Поиск расширенной информации на нашем сайте:

Другие новости

Новости СМИ2

Главная страница сайта

Новости сайта

03.07.2017

Напоминаем, что на нашем специализированном сайте Метеоцентр.Азия вы можете получить высокодетализированные автоматические прогнозы погоды по пунктам России, СНГ и мира в авиационном формате (включающие направление и скорость ветра, видимость, явления погоды, количество и форму облачности, нижнюю и верхнюю границу облачности).

Рекомендуем: калькулятор стоимости пластиковых окон спб

Погода Свободный - сегодня

Время (UTC), дата Ветер
(°,м/с) 
Видим.   Явления Облачность Т
(°С)
Тd
(°С)
f(%) Тe
(°С)
Pmin
(гПа)
dP
(гПа)
Po
(мм)
O2
(г/м3)
Тmin Tmax R s Состояние
почвы
09 18.02.18 280 (З) 20000 м    10/0 верхняя 
[Ci fib]
-14.7 -23.9 45 -17  1018.5  0.2  744  318           
15 18.02.18 280 (З) 50000 м    ясно 
-19.6 -26.1 56 -24  1018.7  -0.6  744  325           
18 18.02.18 290 (З) 50000 м    ясно 
-19 -25.7 55 -25  1018.6  -0.1  744  324           
21 18.02.18 290 (З) 50000 м    ясно 
-21.5 -27.6 58 -27  1018.1  -0.7  743  327           
03 19.02.18 290 (З) 7{10}  20000 м    ясно 
-14.4 -26.1 36 -21  1016.6  0.1  743  318           
09 19.02.18 300 (СЗ) 4{10}  20000 м    ясно 
-16.1 -27.8 36 -21  1017.3  1.2  743  320           
12 19.02.18 280 (З) 50000 м    3/0 верхняя 
[Ci fib]
-21.1 -28.6 51 -26  1018.3  0.4  743  326    -13       
15 19.02.18 280 (З) 50000 м    ясно 
-22.9 -29.9 53 -28  1017.7  -0.8  743  328           
18 19.02.18 280 (З) 50000 м    ясно 
-22.7 -30 51 -30  1017.4  -0.2  743  328           
21 19.02.18 280 (З) 50000 м    ясно 
-25 -30.9 58 -31  1017.4  -0.3  742  331           
03 20.02.18 310 (СЗ) 20000 м    ясно 
-14.8 -27.4 33 -19  1016.7  -0.1  743  318           
06 20.02.18 290 (З) 20000 м    ясно 
-12.4 -25.4 33 -18  1015.6  -0.8  742  315           
09 20.02.18 300 (СЗ) 20000 м    ясно 
-15.2 -27.6 34 -17  1016.8  0.9  743  319           
12 20.02.18 280 (З) 50000 м    ясно 
-19.5 -28.2 46 -24  1017.8  0.5  743  324    -12       
15 20.02.18 270 (З) 50000 м    ясно 
-20.2 -27.6 52 -25  1017.2  -0.7  743  325           
18 20.02.18 290 (З) 50000 м    ясно 
-25.2 -29.5 67 -28  1017.1  -0.6  742  331           
21 20.02.18 тихо ()   50000 м    ясно 
-27.7 -31.3 71 -28  1016.8  -0.6  742  334           
03 21.02.18 270 (З) 20000 м    ясно 
-12.2 -26 31 -12  1014.2  -0.6  741  314           
06 21.02.18 270 (З) 20000 м    3/0 верхняя 
[Ci fib]
-10.8 -25.3 29 -13  1012.2  -1.8  740  312           
09 21.02.18 170 (Ю) 20000 м    3/0 верхняя 
[Ci sp]
-15.9 -23.9 50 -16  1013.4  0.7  740  318           
12 21.02.18 300 (СЗ) 50000 м    ясно 
-21.7 -28.3 55 -22  1014.8  0.8  741  326    -10.4       
15 21.02.18 300 (СЗ) 50000 м    ясно 
-26.4 -30.5 68 -27  1015.1  -0.3  741  332           
18 21.02.18 320 (СЗ) 50000 м    ясно 
-30.2 -33.6 72 -31  1015.3  -0.2  740  337           
21 21.02.18 310 (СЗ) 50000 м    ясно 
-31.8 -35.5 70 -33  1015.4  0.1  740  340           
03 22.02.18 270 (З) 20000 м    ясно 
-13.5 -25.8 35 -16  1014.7  741  316           
Время (UTC), дата Ветер
(°,м/с) 
Видим.   Явления Облачность Т
(°С)
Тd
(°С)
f(%) Тe
(°С)
Pmin
(гПа)
dP
(гПа)
Po
(мм)
O2
(г/м3)
Тmin Tmax R s Состояние
почвы

Для получения пояснительной информации подведите курсор к названию столбца.

ПОГОДА Свободный - архив

Всё, что Вы хотите узнать о погоде Свободный - удобно и подробно!

Выберите нужную дату (начиная с 1 января 2015* года) и нажмите кнопку "Найти".
Будут отображены архивные сводки погоды по пункту Свободный, начиная с указанной даты.


Отображать данные в формате CSV (для использования в таблицах Excel)


Внимание! Наш архив погоды предназначен исключительно для личного некоммерческого использования в познавательных целях. Если Вам необходимы официальные справки о состоянии погоды (для производственных, юридических, коммерческих и т.п. целей), обращайтесь в органы Росгидромета.

*Примечание: данная дата относится к архиву по метеостанциям СССР (Россия, СНГ, Балтия).
Архив по метеостанциям Зарубежной Европы и Азии (кроме Китая) хранится 10 дней, по другим регионам земного шара (Китай, Африка, Америка, Австралия, Океания) - 1 день.

Свободный - район местоположения метеостанции


Название, широта, долгота, высота метеостанции:
Свободный 51.4°ш. 128.1°д. 197 м над ур. моря [Российская Федерация]

Дополнительная информация

В oтличие oт бoльшинства пoгoдных сайтoв мы публикуем пoдрoбную метеoинфoрмацию в детальнoм прoфессиoнальнoм фoрмате.

Характеристики температуры и влажнoсти вoздуха измеряются на высoте 2 м в тени вдали oт зданий и деревьев.
Скoрoсть ветра измеряется на высoте 10 м (на урoвне рoста челoвека скoрoсть ветра ниже в 1.5-2 раза). Если метеoстанция нахoдится в гoрoде или в лесу, тo скoрoсть ветра занижена на 2-4 м/с пo сравнению с oткрытым местoм. Скoрoсть ветра над акватoриями крупных рек и oзёр, а также на вершинах хoлмoв на 2-5 м/с выше, чем в oбычных услoвиях.
Атмoсфернoе давление в разных тoчках местнoсти мoжет значительнo oтличаться oт давления на метеoстанции, в зависимoсти oт услoвий рельефа (при пoдъёме на 10 м давление пoнижается примернo на 1 мм рт.ст.).